World > North America > United States > Pennsylvania

Cowans Gap, Pennsylvania Regional Weather

Lat: 39.96N, Lon: 77.9W
Wx Zone: PAZ036Web Search

Helpful Tip: You can add this page to Bookmarks by pressing the Ctrl key & d key at the same time. Mac users press command & d.

Feedback


°F Click to change Cowans Gap hourly weather to Imperial units.Click to change Cowans Gap hourly weather to Metric units. °C
Cowans Gap Weather Map
UTC Time: 5/9/2021, 17:23
Your Time:

Cowans Gap, PA Regional Weather

Expires:202105091800;;848322
ASUS41 KCTP 091703
RWRCTP

REGIONAL WEATHER ROUNDUP
NATIONAL WEATHER SERVICE STATE COLLEGE PA
100 PM EDT SUN MAY 09 2021

Note: "fair" indicates few or no clouds below 12,000 feet with no 
significant weather and/or obstructions to visibility.

* = STATION THAT DOES NOT REPORT PRECIPITATION /E.G. RAIN...SNOW...ETC/
    THUNDER OR FOG.


PAZ004>006-010>012-017>019-024>028-033>037-041-042-045-046-049>053-091800-
CENTRAL PENNSYLVANIA
  
CITY           SKY/WX    TMP DP  RH WIND       PRES   REMARKS
BRADFORD       LGT RAIN  38  33  82 S5        29.95F                  
ST MARYS       LGT SNOW  34  34 100 SE5       30.00F                  
DUBOIS         SNOW      33  32  96 E7        29.95F VSB 1/2          
CLEARFIELD     RAIN      36  35  96 E6        29.99F FOG              
JOHNSTOWN      RAIN      39  36  89 VRB7      29.90F FOG              
SOMERSET       CLOUDY    39  36  87 SE10G17   29.90F                  
ALTOONA        CLOUDY    42  37  82 NE3       29.95F                  
STATE COLLEGE  RAIN      39  37  93 S3        30.02F                  
REEDSVILLE     LGT RAIN  43 N/A N/A CALM      30.02F                  
WELLSBORO      LGT RAIN  43  34  70 SW10G18   29.96F                  
WILLIAMSPORT   LGT RAIN  48  37  65 SW7       30.02F                  
SELINSGROVE    LGT RAIN  46  40  79 VRB3      30.05F                  
FT INDIANTOWN  LGT RAIN  47  42  82 S7        30.04F                  
CAPITAL CITY   LGT RAIN  48  41  76 SE6       30.03F                  
HARRISBURG     LGT RAIN  49  39  68 SE5       30.02F                  
YORK           CLOUDY    48  40  73 CALM      30.05F                  
$$


SKY/WX - Weather  TMP - Temperature  DP - Dew Point  RH - Relative Humidity
WIND - Wind Direction/Speed PRES - Barometric Pressure VSB - Visibility
WCI - Wind Chill Index E13G22 Wind - East Wind 13 mph/Gusts of 22 mph